N979RC KHIE-KBXM

Flight info

Callsign N979RC
Flight time 0h 29m
Altitude 13000
Route LOCAL VFR
Aircraft BE36/L-VGD/C

Departure

Time 2026-05-04 01:55
Airport Mount Washington Regional Airport (KHIE)

Arrival

Time 2026-05-04 02:25
Airport Brunswick Executive Airport (KBXM)
Time Latitude Longitude Altitude Speed Heading
2026-05-04 01:53 44.36782 -71.53856 1059 ft 0 kts 267°
2026-05-04 01:55 44.36762 -71.54327 1056 ft 89 kts 266°
2026-05-04 01:55 44.36743 -71.55332 1339 ft 109 kts 271°
2026-05-04 01:55 44.36721 -71.56335 1904 ft 100 kts 268°
2026-05-04 01:55 44.36674 -71.57314 2236 ft 107 kts 269°
2026-05-04 01:56 44.36624 -71.58393 2541 ft 115 kts 269°
2026-05-04 01:56 44.36554 -71.59527 2863 ft 120 kts 269°
2026-05-04 01:56 44.36470 -71.60703 3170 ft 124 kts 270°
2026-05-04 01:56 44.36364 -71.61909 3463 ft 126 kts 269°
2026-05-04 01:57 44.35907 -71.62986 3725 ft 145 kts 222°
2026-05-04 01:57 44.34852 -71.63175 3986 ft 169 kts 171°
2026-05-04 01:57 44.33913 -71.62139 4212 ft 178 kts 116°
2026-05-04 01:57 44.33684 -71.60498 4487 ft 172 kts 92°
2026-05-04 01:58 44.33384 -71.58893 4750 ft 174 kts 108°
2026-05-04 01:58 44.32967 -71.57307 5017 ft 175 kts 108°
2026-05-04 01:58 44.32554 -71.55705 5271 ft 175 kts 108°
2026-05-04 01:58 44.32138 -71.54096 5536 ft 177 kts 108°
2026-05-04 01:59 44.31719 -71.52478 5801 ft 178 kts 108°
2026-05-04 01:59 44.31296 -71.50846 6074 ft 179 kts 107°
2026-05-04 01:59 44.30868 -71.49200 6320 ft 182 kts 107°
2026-05-04 01:59 44.30450 -71.47579 6548 ft 173 kts 107°
2026-05-04 02:00 44.30043 -71.46025 6798 ft 169 kts 107°
2026-05-04 02:00 44.29644 -71.44501 7062 ft 171 kts 107°
2026-05-04 02:00 44.29236 -71.42922 7326 ft 176 kts 107°
2026-05-04 02:00 44.28829 -71.41348 7547 ft 167 kts 107°
2026-05-04 02:01 44.28435 -71.39848 7808 ft 163 kts 105°
2026-05-04 02:01 44.28051 -71.38374 8065 ft 161 kts 105°
2026-05-04 02:01 44.27799 -71.37408 8235 ft 160 kts 105°
2026-05-04 02:01 44.27299 -71.35490 8583 ft 156 kts 105°
2026-05-04 02:02 44.27055 -71.34556 8744 ft 154 kts 105°
2026-05-04 02:02 44.26559 -71.32631 8857 ft 169 kts 106°
2026-05-04 02:02 44.26139 -71.31026 8848 ft 182 kts 107°
2026-05-04 02:02 44.25699 -71.29359 8848 ft 184 kts 107°
2026-05-04 02:03 44.25252 -71.27706 8832 ft 177 kts 105°
2026-05-04 02:03 44.24983 -71.26650 8844 ft 173 kts 105°
2026-05-04 02:03 44.24573 -71.25056 8860 ft 176 kts 106°
2026-05-04 02:03 44.24147 -71.23413 8848 ft 184 kts 106°
2026-05-04 02:04 44.23701 -71.21743 8827 ft 180 kts 106°
2026-05-04 02:04 44.23266 -71.20091 8828 ft 182 kts 105°
2026-05-04 02:04 44.22699 -71.17896 8835 ft 183 kts 106°
2026-05-04 02:04 44.22253 -71.16208 8846 ft 188 kts 107°
2026-05-04 02:05 44.21948 -71.15051 8836 ft 187 kts 106°
2026-05-04 02:05 44.21504 -71.13376 8836 ft 186 kts 106°
2026-05-04 02:05 44.21058 -71.11678 8840 ft 188 kts 106°
2026-05-04 02:05 44.20603 -71.09949 8837 ft 192 kts 107°
2026-05-04 02:06 44.20141 -71.08214 8843 ft 190 kts 107°
2026-05-04 02:06 44.19687 -71.06492 8844 ft 189 kts 107°
2026-05-04 02:06 44.19235 -71.04777 8843 ft 188 kts 107°
2026-05-04 02:06 44.18783 -71.03070 8838 ft 187 kts 108°
2026-05-04 02:07 44.18333 -71.01372 8843 ft 187 kts 107°
2026-05-04 02:07 44.17890 -70.99698 8843 ft 187 kts 107°
2026-05-04 02:07 44.17441 -70.98000 8839 ft 187 kts 108°
2026-05-04 02:07 44.16991 -70.96304 8844 ft 187 kts 107°
2026-05-04 02:08 44.16540 -70.94608 8840 ft 187 kts 107°
2026-05-04 02:08 44.16091 -70.92914 8840 ft 186 kts 107°
2026-05-04 02:08 44.15641 -70.91219 8843 ft 187 kts 108°
2026-05-04 02:08 44.15189 -70.89521 8840 ft 187 kts 108°
2026-05-04 02:09 44.14736 -70.87823 8829 ft 188 kts 108°
2026-05-04 02:09 44.14283 -70.86117 8831 ft 188 kts 108°
2026-05-04 02:09 44.13826 -70.84401 8754 ft 193 kts 108°
2026-05-04 02:09 44.13352 -70.82614 8498 ft 205 kts 108°
2026-05-04 02:10 44.12845 -70.80718 8246 ft 212 kts 108°
2026-05-04 02:10 44.12323 -70.78765 7984 ft 218 kts 108°
2026-05-04 02:10 44.11791 -70.76774 7734 ft 221 kts 108°
2026-05-04 02:10 44.11250 -70.74749 7476 ft 225 kts 107°
2026-05-04 02:11 44.10700 -70.72697 7223 ft 228 kts 107°
2026-05-04 02:11 44.10145 -70.70627 6970 ft 229 kts 107°
2026-05-04 02:11 44.09586 -70.68544 6717 ft 231 kts 107°
2026-05-04 02:11 44.09030 -70.66474 6473 ft 232 kts 107°
2026-05-04 02:12 44.08462 -70.64366 6227 ft 233 kts 107°
2026-05-04 02:12 44.07892 -70.62246 5960 ft 234 kts 107°
2026-05-04 02:12 44.07321 -70.60126 5698 ft 234 kts 107°
2026-05-04 02:12 44.06749 -70.57996 5431 ft 235 kts 107°
2026-05-04 02:13 44.06175 -70.55875 5172 ft 234 kts 108°
2026-05-04 02:13 44.05600 -70.53753 4914 ft 235 kts 108°
2026-05-04 02:13 44.05034 -70.51658 4838 ft 227 kts 108°
2026-05-04 02:13 44.04489 -70.49641 4832 ft 220 kts 107°
2026-05-04 02:14 44.03962 -70.47697 4832 ft 216 kts 107°
2026-05-04 02:14 44.03435 -70.45744 4828 ft 215 kts 108°
2026-05-04 02:14 44.02909 -70.43805 4826 ft 214 kts 108°
2026-05-04 02:14 44.02385 -70.41872 4835 ft 214 kts 107°
2026-05-04 02:15 44.01863 -70.39939 4836 ft 214 kts 107°
2026-05-04 02:15 44.01338 -70.38013 4840 ft 213 kts 107°
2026-05-04 02:15 44.00812 -70.36082 4839 ft 214 kts 107°
2026-05-04 02:15 44.00287 -70.34153 4834 ft 213 kts 107°
2026-05-04 02:16 43.99771 -70.32253 4828 ft 213 kts 107°
2026-05-04 02:16 43.99247 -70.30332 4834 ft 213 kts 107°
2026-05-04 02:16 43.98722 -70.28406 4837 ft 213 kts 107°
2026-05-04 02:16 43.98196 -70.26481 4833 ft 213 kts 107°
2026-05-04 02:17 43.97670 -70.24553 4839 ft 214 kts 107°
2026-05-04 02:17 43.97143 -70.22624 4838 ft 214 kts 107°
2026-05-04 02:17 43.96614 -70.20693 4839 ft 214 kts 107°
2026-05-04 02:17 43.96045 -70.18793 4834 ft 215 kts 119°
2026-05-04 02:18 43.94941 -70.17446 4835 ft 212 kts 159°
2026-05-04 02:18 43.93605 -70.16691 4835 ft 210 kts 164°
2026-05-04 02:18 43.92239 -70.15963 4839 ft 210 kts 164°
2026-05-04 02:18 43.90869 -70.15240 4846 ft 210 kts 164°
2026-05-04 02:19 43.89506 -70.14524 4849 ft 210 kts 164°
2026-05-04 02:19 43.88249 -70.13492 4843 ft 215 kts 135°
2026-05-04 02:19 43.87294 -70.11902 4850 ft 215 kts 127°
2026-05-04 02:19 43.86364 -70.10285 4854 ft 215 kts 127°
2026-05-04 02:20 43.85436 -70.08667 4852 ft 214 kts 127°
2026-05-04 02:20 43.84515 -70.07057 4858 ft 214 kts 127°
2026-05-04 02:20 43.83588 -70.05437 4856 ft 215 kts 127°
2026-05-04 02:20 43.82781 -70.03743 4769 ft 213 kts 114°
2026-05-04 02:21 43.82154 -70.01906 4505 ft 210 kts 111°
2026-05-04 02:21 43.81546 -70.00077 4237 ft 208 kts 111°
2026-05-04 02:21 43.80944 -69.98257 3976 ft 208 kts 111°
2026-05-04 02:21 43.80367 -69.96498 3720 ft 192 kts 111°
2026-05-04 02:22 43.80152 -69.94803 3440 ft 171 kts 71°
2026-05-04 02:22 43.80703 -69.93569 3160 ft 137 kts 21°
2026-05-04 02:22 43.81510 -69.93157 2887 ft 118 kts
2026-05-04 02:22 43.82232 -69.92819 2821 ft 109 kts
2026-05-04 02:23 43.83026 -69.92640 2608 ft 127 kts 354°
2026-05-04 02:23 43.83977 -69.92738 2070 ft 142 kts 348°
2026-05-04 02:23 43.84966 -69.92919 1614 ft 144 kts 345°
2026-05-04 02:23 43.85969 -69.93140 1161 ft 148 kts 344°
2026-05-04 02:24 43.86941 -69.93383 673 ft 137 kts 346°
2026-05-04 02:24 43.87872 -69.93572 261 ft 133 kts 351°
2026-05-04 02:24 43.88681 -69.93682 64 ft 115 kts 355°
2026-05-04 02:24 43.89237 -69.93742 67 ft 63 kts 356°
2026-05-04 02:25 43.89557 -69.93785 71 ft 33 kts 355°
2026-05-04 02:25 43.89755 -69.93807 71 ft 20 kts 356°
2026-05-04 02:25 43.89809 -69.93700 71 ft 17 kts 84°
2026-05-04 02:25 43.89715 -69.93618 70 ft 22 kts 176°
2026-05-04 02:26 43.89552 -69.93600 66 ft 25 kts 175°
2026-05-04 02:26 43.89423 -69.93565 68 ft 14 kts 133°
2026-05-04 02:26 43.89397 -69.93405 68 ft 20 kts 104°
2026-05-04 02:26 43.89281 -69.93273 66 ft 24 kts 149°
2026-05-04 02:27 43.89227 -69.93215 67 ft 0 kts 155°